Regional Weather Roundup
Issued by NWS

Home | Current Version | Previous Version | Graphics & Text | Print | Product List | Glossary On
Versions: 1 2 3 4 5 6 7 8 9 10 11 12 13 14 15 16 17 18 19 20 21 22 23 24 25 26 27 28 29 30 31 32 33 34 35 36 37 38 39 40 41 42 43 44 45 46 47 48 49 50
000
ASUS44 KMEG 231810
RWRTN
TENNESSEE HOURLY STATE WEATHER ROUNDUP
NATIONAL WEATHER SERVICE MEMPHIS TN
100 PM CDT MON MAY 23 2016

TNZ002-004-019-021-049-052-054-088>092-231900-
WEST TENNESSEE

CITY           SKY/WX    TMP DP  RH WIND       PRES   REMARKS
MEMPHIS INTL   CLOUDY    82  51  34 E5        30.03F
NWS MEMPHIS      N/A     83 N/A N/A MISG        N/A
JACKSON        SUNNY     80  52  37 CALM      30.03F
DYERSBURG      SUNNY     82  52  34 S8        30.01F
UNION CITY     SUNNY     82  52  34 SW7       30.00F
PARIS          SUNNY     81  50  34 CALM      30.02F
LEXINGTON      SUNNY     82  52  34 VRB6      30.01F
$$

TNZ008-025-027-028-033-062-065-066-231900-
NORTH MIDDLE TENNESSEE

CITY           SKY/WX    TMP DP  RH WIND       PRES   REMARKS
NASHVILLE      MOSUNNY   81  50  33 CALM      30.02S
CLARKSVILLE    SUNNY     80  52  37 E8        30.01S
SMYRNA         MOSUNNY   80  50  35 N9        30.02S
COOKEVILLE     SUNNY     79  50  36 VRB6      30.01S
CROSSVILLE     SUNNY     75  42  30 NE6       30.05S
$$

TNZ061-075-076-078-094-096-097-231900-
SOUTH MIDDLE TENNESSEE

CITY           SKY/WX    TMP DP  RH WIND       PRES   REMARKS
FAYETTEVILLE   MOSUNNY   79  48  34 NE6G15    30.02S
TULLAHOMA      SUNNY     79  43  27 VRB3      30.03S
WINCHESTER     MOSUNNY   79  46  31 CALM      30.02S
MCMINNVILLE    SUNNY     79  52  38 VRB6      30.02S
COLUMBIA       SUNNY     82  54  36 VRB6      30.00F
SHELBYVILLE    SUNNY     81  52  36 N8        30.02S
$$

TNZ017-018-042-046-047-231900-
NORTHEAST TENNESSEE

CITY           SKY/WX    TMP DP  RH WIND       PRES   REMARKS
TRI CITIES     PTSUNNY   68  48  48 VRB5      30.05F
$$

TNZ012-013-036-069-073-074-231900-
CENTRAL EAST TENNESSEE

CITY           SKY/WX    TMP DP  RH WIND       PRES   REMARKS
KNOXVILLE      MOSUNNY   74  50  42 NE10      30.01S
OAK RIDGE      SUNNY     77  45  32 VRB3      30.02S
GATLINBURG     SUNNY     72  45  37 NE8       30.01F
$$

TNZ083-085-099-231900-
SOUTHEAST TENNESSEE

CITY           SKY/WX    TMP DP  RH WIND       PRES   REMARKS
CHATTANOOGA    MOSUNNY   82  49  31 N6        29.99F
$$

SKY/WX REPORTED AS FAIR MEANS FEW OR NO CLOUDS BELOW
12 THOUSAND FEET.




USA.gov is the U.S. government's official web portal to all federal, state and local government web resources and services.